Weather History for South Lake Tahoe, CA

Change the Weather History Date:

Wednesday, May 1, 2013

  Actual Average Record
Temperature  
Mean Temperature 48 °F -  
Max Temperature 61 °F 59 °F 78 °F (1985)
Min Temperature 35 °F 29 °F 20 °F (1988)
Degree Days  
Heating Degree Days 17 21  
Month to date heating degree days 17 21  
Since 1 July heating degree days 6401 6911  
Cooling Degree Days 0 0  
Month to date cooling degree days 0 0  
Year to date cooling degree days 0 0  
Moisture  
Dew Point 0 °F    
Average Humidity 21    
Maximum Humidity 33    
Minimum Humidity 8    
Precipitation  
Precipitation 0.00 in - 1.00 in (1975)
Month to date precipitation 0.00  
Year to date precipitation 2.94  
Sea Level Pressure  
Sea Level Pressure 30.21 in    
Wind  
Wind Speed 9 mph (East)    
Max Wind Speed 20 mph    
Max Gust Speed 31 mph    
Visibility 10 miles    
Events      
T = Trace of Precipitation, MM = Missing Value Source: NWS Daily Summary

Daily Weather History Graph

Daily Weather History Graph

Search for Another Location

Airport:

Trip Planner

Search our weather history database for the weather conditions in past years. The results will help you decide how hot, cold, wet, or windy it might be!

Date:

Astronomy

May. 01, 2013 Rise Set
Actual Time 6:01 AM PDT 7:52 PM PDT
Civil Twilight 5:32 AM PDT 8:21 PM PDT
Nautical Twilight 4:58 AM PDT 8:56 PM PDT
Astronomical Twilight 4:20 AM PDT 9:34 PM PDT
Moon 1:05 AM PDT (5/1) 11:45 AM PDT (5/1)
Length of Visible Light 14h 48m
Length of Day
13h 51m
Waning Gibbous, 58% of the Moon is Illuminated
May 1
Waning Gibbous
May 2
Last Quarter
May 9
New
May 17
First Quarter
May 24
Full

Hourly Weather History & Observations

Time (PDT) Temp. Windchill Dew Point Humidity Pressure Visibility Wind Dir Wind Speed Gust Speed Precip Events Conditions
12:53 AM 45.0 °F 39.7 °F -9.0 °F 10% 30.06 in 10.0 mi ENE 10.4 mph 20.7 mph N/A   Clear
1:53 AM 44.1 °F 40.1 °F -9.0 °F 11% 30.07 in 10.0 mi Variable 6.9 mph 19.6 mph N/A   Clear
2:53 AM 42.1 °F 37.1 °F -7.1 °F 12% 30.06 in 10.0 mi ENE 8.1 mph 19.6 mph N/A   Clear
5:53 AM 39.9 °F 35.1 °F -5.1 °F 15% 30.13 in 10.0 mi Variable 6.9 mph 18.4 mph N/A   Clear
6:53 AM 41.0 °F 35.8 °F -4.0 °F 15% 30.14 in 10.0 mi SE 8.1 mph 21.9 mph N/A   Clear
7:53 AM 43.0 °F 36.4 °F -2.9 °F 15% 30.16 in 10.0 mi East 12.7 mph 23.0 mph N/A   Clear
8:53 AM 46.9 °F - 3.0 °F 16% 30.18 in 10.0 mi Variable 6.9 mph - N/A   Clear
9:53 AM 50.0 °F - 1.0 °F 13% 30.17 in 10.0 mi ESE 10.4 mph 16.1 mph N/A   Clear
10:53 AM 54.0 °F - 6.1 °F 15% 30.17 in 10.0 mi NNE 11.5 mph 19.6 mph N/A   Clear
11:53 AM 55.9 °F - 3.0 °F 12% 30.19 in 10.0 mi East 11.5 mph 17.3 mph N/A   Clear
12:53 PM 57.9 °F - 6.1 °F 13% 30.20 in 10.0 mi Variable 6.9 mph - N/A   Clear
2:53 PM 60.1 °F - 3.0 °F 10% 30.22 in 10.0 mi ENE 11.5 mph 20.7 mph N/A   Clear
3:53 PM 61.0 °F - 3.0 °F 10% 30.21 in 10.0 mi East 10.4 mph 23.0 mph N/A   Clear
4:53 PM 60.1 °F - -2.0 °F 8% 30.23 in 10.0 mi East 13.8 mph 27.6 mph N/A   Clear
5:53 PM 59.0 °F - -2.0 °F 8% 30.25 in 10.0 mi East 11.5 mph 19.6 mph N/A   Clear
6:53 PM 55.0 °F - -2.0 °F 10% 30.27 in 10.0 mi Variable 6.9 mph 17.3 mph N/A   Clear
7:53 PM 52.0 °F - -2.0 °F 11% 30.30 in 10.0 mi Variable 3.5 mph - N/A   Clear
8:53 PM 48.9 °F - -0.0 °F 13% 30.33 in 10.0 mi NNE 8.1 mph - N/A   Clear
9:53 PM 48.9 °F - -2.0 °F 12% 30.35 in 10.0 mi Variable 6.9 mph - N/A   Clear
10:53 PM 39.0 °F - 12.9 °F 34% 30.39 in 10.0 mi Calm Calm - N/A   Clear
11:53 PM 37.9 °F 34.4 °F 10.9 °F 33% 30.39 in 10.0 mi South 4.6 mph - N/A   Clear